Regional Weather Roundup
Issued by NWS

Home | Current Version | Previous Version | Graphics & Text | Print | Product List | Glossary Off
Versions: 1 2 3 4 5 6 7 8 9 10 11 12 13 14 15 16 17 18 19 20 21 22 23 24 25 26 27 28 29 30 31 32 33 34 35 36 37 38 39 40 41 42 43 44 45 46 47 48 49 50

000
ASUS43 KFSD 191702
RWRSD

WEATHER ROUNDUP FOR SOUTH DAKOTA
NATIONAL WEATHER SERVICE SIOUX FALLS SD
1200 PM CDT SAT APR 19 2014

NOTE: "FAIR" INDICATES FEW OR NO CLOUDS BELOW 12,000 FEET WITH NO
SIGNIFICANT WEATHER AND/OR OBSTRUCTIONS TO VISIBILITY.


SDZ001>005-009-010-012>017-191800-
NORTHWEST AND NORTH CENTRAL SOUTH DAKOTA

CITY           SKY/WX    TMP DP  RH WIND       PRES   REMARKS
FAITH            N/A     58  23  26 W20G25    29.99F
MOBRIDGE       MOSUNNY   61  23  23 W18       29.94S
$$

SDZ012>016-024>037-041>051-057-063-072>074-191800-
SOUTHWEST AND SOUTH CENTRAL SOUTH DAKOTA

CITY           SKY/WX    TMP DP  RH WIND       PRES   REMARKS
RAPID CTY ARPT MOSUNNY   59  17  19 N10       30.03S
PIERRE         MOSUNNY   58  26  29 NW13      30.01S
CUSTER         PTSUNNY   49  31  49 SE8       30.04R
ELLSWORTH AFB  SUNNY     57  17  21 N10G16    30.03S
PHILIP         MOSUNNY   59  18  20 N9        30.03S
PINE RIDGE     PTSUNNY   57  22  25 NE6       30.06R
WINNER         FAIR      60  27  28 N12       30.04R
$$

SDZ004>011-016>023-039-040-191800-
NORTHEAST SOUTH DAKOTA

CITY           SKY/WX    TMP DP  RH WIND       PRES   REMARKS
ABERDEEN       MOSUNNY   63  25  23 NW15G22   29.97R
WATERTOWN      PTSUNNY   59  38  45 NW13      29.97S
SISSETON         N/A     63  33  32 W15G21    29.94R
$$

SDZ017-020-022-023-036>040-048>070-191800-
SOUTHEAST SOUTH DAKOTA

CITY           SKY/WX    TMP DP  RH WIND       PRES   REMARKS
SIOUX FALLS    PTSUNNY   67  44  43 SW9       29.97R
HURON          PTSUNNY   63  32  31 NW8       30.00R
CHAMBERLAIN      N/A     61  29  29 N8        30.03R
MITCHELL       CLOUDY    62  36  37 NW17      30.02R
YANKTON        MOSUNNY   64  46  52 SW9       30.00R
$$

ABBREVIATIONS USED IN REMARKS
   TC - TEMPERATURE IN CELSIUS
  WCI - WIND CHILL INDEX
   HX - HEAT INDEX
  VSB - VISIBILITY




USA.gov is the U.S. government's official web portal to all federal, state and local government web resources and services.